Find Starlink 31909

NORAD ID: 59663 Int'l Des: 2024-084 Owner: SPXS Country: US Constellation: starlink operational
LEOCIRCULAR

Live Position

Loading 3D Globe...

About Starlink 31909

Description loading...

Upcoming Passes

Passes for default location (London). Set your location on the main map for personalized predictions.

Altitude History

Loading altitude history...

Two-Line Element Set

1 59663U 24084K 26130.19071138 -.00000370 00000-0 -39173-5 0 9999
2 59663 43.0030 54.1080 0001308 247.3363 112.7351 15.27573549113787
Epoch: May 10, 2026 • Age: 5 hours

Current Status

Altitude 490.1 km
Velocity 7.62 km/s
Sub-Earth Point -28.38°S, 13.29°E
Launch Date May 6, 2024
Age 2 years
Type internet

Technical Details

Classification Payload
Mass 730.00 kg
Dry Mass 700.00 kg
Total Mass 730.00 kg
Length 0.30 m
Diameter 4.10 m
Span 29.00 m
Shape Box + pan
Manufacturer SPXS
Bus Type Starlink V2M
Phase Status In Orbit
Owner/State SPXS/US

Most Searched